Cosmos 1544 - Orbit

View from above orbital plane
View from above orbital plane
View from above satellite
View from above satellite

Ground track
Ground track

The orbit data is extracted from the following two-line orbital elements,

1 14819U 84027A   13139.20743329  .00005072  00000-0  28368-3 0  6486
2 14819 082.4917 072.5908 0018212 195.0352 282.1371 15.13118448589402
Epoch (UTC): 19 May 2013 04:58:42
Eccentricity: 0.0018212
inclination: 82.4917°
perigee height: 514 km
apogee height: 539 km
right ascension of ascending node: 72.5908°
argument of perigee: 195.0352°
revolutions per day: 15.13118448
mean anomaly at epoch: 282.1371°
orbit number at epoch: 58940

The dashed part of the orbit path shows where the satellite is in the earth's shadow,  

Developed and maintained by Chris Peat, Heavens-Above GmbH. Please read the updated FAQ before sending e-mail. Imprint. DLR